Current Version              Previous Version:    01  02  03  04  05  06  07  08  09  10  11  12  13  14  15  16  17  18  19  20  21  22  23  24  25  26  27  28  29  30  
   31  32  33  34  35  36  37  38  39  40  41  42  43  44  45  46  47  48  49  50  51  52  53  54  55  56  57  58  59  60  

[Printable]
150
ASUS44 KFWD 250501
RWRTX
NORTH TEXAS HOURLY WEATHER ROUNDUP
NATIONAL WEATHER SERVICE FORT WORTH TX
1200 AM CDT SAT OCT 25 2014

NOTE: "FAIR" INDICATES FEW OR NO CLOUDS BELOW 12,000 FEET WITH NO
SIGNIFICANT WEATHER AND/OR OBSTRUCTIONS TO VISIBILITY.

TXZ118-119-250600-
DALLAS/FORT WORTH METROPLEX

CITY           SKY/WX    TMP DP  RH WIND       PRES   REMARKS
DFW AIRPORT    PTCLDY    69  60  73 S8        30.09S
DALLAS LOVE    CLEAR     72  59  63 S10       30.10S
FTW MEACHAM    CLEAR     73  60  63 S12       30.09S
DAL-EXECUTIVE  CLEAR     71  59  65 S7        30.10S
FTW-ALLIANCE   CLEAR     70  60  70 S7        30.09S
FTW-NAS-JRB    CLEAR     75  58  55 S10       30.13S
ARLINGTON      CLEAR     70  58  65 S7        30.10S
GRAND PRAIRIE  CLEAR     70  62  74 S5        30.11S
ADDISON        CLEAR     72  62  72 S7        30.12R
MESQUITE       CLEAR     65  59  80 S6        30.11S
LANCASTER      CLEAR     66  58  75 S3        30.12S
$$

TXZ091>094-102>105-117-120-121-131>134-250600-
NORTH CENTRAL TEXAS

CITY           SKY/WX    TMP DP  RH WIND       PRES   REMARKS
SHRMAN/DENISON CLEAR     69  62  77 S10       30.10S
GAINESVILLE    CLEAR     66  61  85 S5        30.11S
BRIDGEPORT     CLEAR     72  61  69 S8        30.10S
DECATUR        CLEAR     71  58  64 S12       30.09S
DENTON         CLEAR     68  60  75 S7        30.09R
MCKINNEY       CLEAR     67  60  78 S8        30.10S
ROCKWALL       CLEAR     67  59  76 S8        30.10S
TERRELL        CLEAR     66  59  78 S5        30.12S
WAXAHACHIE     CLEAR     66  60  80 S5        30.13S
CLEBURNE       CLEAR     68  63  83 S7        30.13S
GRANBURY       CLEAR     71  61  69 SE3       30.12S
$$

TXZ083>090-098>101-113>116-127>130-139>142-154-155-250600-
WESTERN NORTH TEXAS

CITY           SKY/WX    TMP DP  RH WIND       PRES   REMARKS
WICHITA FALLS  CLEAR     65  58  78 S9        30.05S
WF-KICKAPOO    CLEAR     67  57  71 MISG      30.07S
VERNON         CLEAR     70  55  60 SW8       30.07S
ABILENE        CLEAR     73  56  54 S12       30.13S
ABILENE-DYESS  CLEAR     68  55  63 S10       30.12S
MINERAL WELLS  CLEAR     66  60  81 SE9       30.09R
STEPHENVILLE   CLEAR     65  59  79 S3        30.15F
COMANCHE       CLEAR     68  60  75 S9        30.14S
COLEMAN        CLEAR     69  58  68 S6        30.15S
$$

TXZ143>147-156>162-174-175-250600-
CENTRAL TEXAS

CITY           SKY/WX    TMP DP  RH WIND       PRES   REMARKS
WACO           CLEAR     69  60  73 S9        30.13R
WACO-MCGREGOR  CLEAR     66  54  63 S7        30.14S
CORSICANA      CLEAR     66  59  78 S8        30.14R
MEXIA          CLEAR     63  60  89 S6        30.13S
HEARNE         CLEAR     64  58  81 CALM      30.15S HAZE
TEMPLE         CLEAR     66  55  68 S8        30.13S
KILLEEN        CLEAR     67  59  76 S8        30.14S
KILLEEN-SKYLRK CLEAR     66  55  68 S6        30.12S
GATESVILLE     CLEAR     66  59  77 S5        30.16S
HAMILTON       CLEAR     66  59  77 S9        30.15S
LAMPASAS       CLEAR     68  61  78 SW3       30.14S
$$

TXZ095>097-106>112-122>126-135>138-148>153-164>167-250600-
EAST TEXAS

CITY           SKY/WX    TMP DP  RH WIND       PRES   REMARKS
PARIS          CLEAR     63  54  72 S6        30.12S
SULPHUR SPRNGS CLEAR     68  59  73 S7        30.13S
MOUNT PLEASANT CLEAR     61  59  94 CALM      30.13S
MINEOLA        CLEAR     66  61  82 S5        30.12F
TYLER          CLEAR     61  58  90 S6        30.12F
LONGVIEW       CLEAR     60  56  86 S5        30.13S
MARSHALL       CLEAR     58  56  92 CALM      30.15S
ATHENS         CLEAR     59  57  94 CALM      30.12S
PALESTINE      CLEAR     65  60  85 CALM      30.15S
JACKSONVILLE   CLEAR     66  57  73 S5        30.16S
HENDERSON      CLEAR     57  57 100 CALM      30.15R FOG
NACOGDOCHES    CLEAR     55  52  88 CALM      30.15S
LUFKIN         CLEAR     60  55  83 CALM      30.14S
$$

SUPPLEMENTAL OBSERVATIONS (CENTRAL)

CITY           SKY/WX    TMP DP  RH WIND       PRES   REMARKS
$$

SUPPLEMENTAL OBSERVATIONS (WEST)

CITY           SKY/WX    TMP DP  RH WIND       PRES   REMARKS
$$

SUPPLEMENTAL OBSERVATIONS (EAST)

CITY           SKY/WX    TMP DP  RH WIND       PRES   REMARKS
$$

SUPPLEMENTAL OBSERVATIONS ARE A COLLECTION OF AUTOMATED INSTRUMENTS
THAT ARE MAINTAINED BY A VARIETY OF FEDERAL AND STATE AGENCIES.
CERTAIN ELEMENTS...SUCH AS HUMIDITY VALUES AND SUSTAINED WIND
SPEEDS...MAY BE APPROXIMATED.